{"data":{"norad_id":68741,"epoch":"2026-09-19T22:05:57.204672Z","epoch_age_seconds":91414,"freshness":"FRESH","line1":"1 68741U 26082P   26262.92080098  .00013562  00000+0  42159-3 0  9998","line2":"2 68741  97.2859 125.0340 0002030  89.1704 270.9771 15.33449934 24214","mean_motion":15.33449934,"eccentricity":0.000203,"inclination_deg":97.2859,"raan_deg":125.034,"arg_perigee_deg":89.1704,"mean_anomaly_deg":270.9771,"bstar":0.00042159,"rev_number":2421,"period_min":93.905902505976,"perigee_km":464.13923030949,"apogee_km":466.91775850022,"semimajor_km":6843.6654944049,"source":"CELESTRAK","updated_at":"2026-09-20T09:00:43.993647Z"}}